Location: B?ezina
(49.8085°N, 13.6013°E)
Time: 21:45:49
(UTC+00:00)

Cosmos 1975 - Pass Details

Date: 19 May 2025
Orbit: 487 x 506 km, 82.5° (Epoch: 15 June)

Event Time Altitude Azimuth Distance (km) Brightness Sun altitude
Rises 22:44:41 0° 340° (NNW) 2,574 7.6 -20.1°
Reaches altitude 10° 22:47:01 10° 327° (NNW) 1,686 6.2 -20.1°
Maximum altitude 22:50:07 26° 270° (W) 1,000 4.1 -20.2°
Enters shadow 22:50:36 25° 256° (WSW) 1,022 4.0 -20.2°
